Regional Weather Roundup
Issued by NWS Boston, MA

Current Version | Previous Version | Text Only | Print | Product List | Glossary Off
Versions: 1 2 3 4 5 6 7 8 9 10 11 12 13 14 15 16 17 18 19 20 21 22 23 24 25 26 27 28 29 30 31 32 33 34 35 36 37 38 39 40 41 42 43 44 45 46 47 48 49 50
894 ASUS41 KBOX 231510 RWRBOX REGIONAL WEATHER ROUNDUP NATIONAL WEATHER SERVICE BOSTON/NORTON MA 1100 AM EDT SAT JUN 23 2018 NOTE: "FAIR" INDICATES FEW OR NO CLOUDS BELOW 12,000 FEET WITH NO SIGNIFICANT WEATHER AND/OR OBSTRUCTIONS TO VISIBILITY. MAZALL-231600- EASTERN MASSACHUSETTS CITY SKY/WX TMP DP RH WIND PRES REMARKS BOSTON CLOUDY 63 57 81 E14 29.97F BEVERLY LGT RAIN 62 57 83 E10 29.98F LAWRENCE CLOUDY 67 50 54 E5 30.00F BEDFORD RAIN 61 56 83 E10 29.96S BLUE HILL N/A 63 55 75 E8 29.95F NORWOOD CLOUDY 67 56 67 SE6 29.95F MARSHFIELD PTSUNNY 63 54 72 SE10 29.97S PLYMOUTH CLOUDY 59 55 87 E6 29.96F TAUNTON CLOUDY 62 54 74 E7 29.94F NEW BEDFORD CLOUDY 61 60 97 NE7 29.92F $$ MAZALL-231600- CAPE COD AND THE ISLANDS CITY SKY/WX TMP DP RH WIND PRES REMARKS FALMOUTH CLOUDY 61 61 100 NE6G13 29.95F FOG HYANNIS CLOUDY 62 61 96 E9 29.92F CHATHAM LGT RAIN 60 59 96 E9 29.96F PROVINCETOWN LGT RAIN 60 56 86 E5 29.98S NANTUCKET LGT RAIN 61 60 97 E10 29.94R MARTHAS VNYRD LGT RAIN 62 61 96 E10 29.92F $$ MAZALL-231600- CENTRAL AND WESTERN MASSACHUSETTS CITY SKY/WX TMP DP RH WIND PRES REMARKS WORCESTER CLOUDY 59 52 77 NE8 29.96F FITCHBURG LGT RAIN 61 55 81 VRB5 29.99S ORANGE LGT RAIN 61 53 75 E5 29.99R SPRINGFIELD CLOUDY 63 49 60 NE7 29.93F WESTFIELD CLOUDY 61 53 75 N7 29.94F NORTH ADAMS CLOUDY 63 42 46 SE21G31 29.93F PITTSFIELD CLOUDY 60 42 51 NE8 29.92F $$ RIZALL-231600- RHODE ISLAND CITY SKY/WX TMP DP RH WIND PRES REMARKS PROVIDENCE CLOUDY 62 55 77 E13 29.94F NEWPORT CLOUDY 61 58 90 NE8 29.92F BLOCK ISLAND LGT RAIN 60 60 100 E13 29.91F FOG SMITHFIELD CLOUDY 62 55 77 E8 29.94F WESTERLY CLOUDY 63 60 90 NE10G17 29.90F $$ CTZALL-231600- CONNECTICUT CITY SKY/WX TMP DP RH WIND PRES REMARKS BRADLEY INTL CLOUDY 62 52 69 VRB3 29.94F HARTFORD CLOUDY 59 54 83 N9 29.92F BRIDGEPORT CLOUDY 61 58 90 NE12 29.90S FOG DANBURY CLOUDY 61 55 81 E10 29.92S GROTON CLOUDY 62 58 86 E8 29.89F NEW HAVEN CLOUDY 61 59 93 NE8 29.90F FOG CHESTER DRIZZLE 59 57 94 NE6G13 29.91S MERIDEN CLOUDY 57 55 93 N6 29.92F FOG WILLIMANTIC CLOUDY 65 55 70 NE8 29.92F OXFORD CLOUDY 56 54 93 NE7 29.92F FOG $$ MEZ002-015-021-024-NHZ003-005-008-011-012-014-VTZ005-008-231600- NORTHERN NEW ENGLAND CITY SKY/WX TMP DP RH WIND PRES REMARKS PORTLAND ME LGT RAIN 62 57 83 E9 30.01F BANGOR ME CLOUDY 66 49 54 S10 30.03S CONCORD NH CLOUDY 65 50 58 SE6 29.99F MANCHESTER NH CLOUDY 66 51 58 E7 29.97F NASHUA NH CLOUDY 65 52 62 SE8 29.98F PORTSMOUTH NH CLOUDY 64 54 70 E9 29.99S JAFFREY NH LGT RAIN 59 54 83 CALM 30.00R KEENE NH LGT RAIN 64 52 64 VRB3 29.98S BURLINGTON VT CLOUDY 67 53 61 S8 29.93F MT. WASHINGTON NOT AVBL $$ NYZ052-076-231600- EASTERN NEW YORK CITY SKY/WX TMP DP RH WIND PRES REMARKS ALBANY LGT RAIN 66 49 54 SE3 29.91F NEW YORK CITY DRIZZLE 64 58 80 NE17 29.88R $$ ANZALL-231600- MARINE OBSERVATIONS STATION/POSITION TIME TEMP WIND PRES VSBY WAVE AIR SEA DIR/SP/G HT/PER (UTC) (F) (DEG/KT/KT) (MB) (MI) (FT/S) BOSTON BUOY 1450 61 62 100/ 12/ 12 1014.6F 2/ 4 BUZZARDS BAY 1400 58 60/ 11/ 12 1014.6S NANTUCKET SOUND 1450 60 65 80/ 16/ 17 1013.5F 2/ 3 MASS BAY-STELLWA 1404 59 60 1013.9R 2/ 3 ISLE OF SHOALS 1500 60 70/ 9/ 9 1015.4F S OF BLOCK IS 1443 62 N/A 5/ 6 $$ ......................KEY......................... SKY/WX - SKY CONDITION/PRESENT WEATHER TMP - TEMPERATURE IN FAHRENHEIT DWPT - DEWPOINT IN FAHRENHEIT RH - RELATIVE HUMIDITY IN PERCENT WIND - DIRECTION AND SPEED IN MPH PRES - MEAN SEA LEVEL PRESSURE IN INCHES OF HG WCI - WIND CHILL INDEX VSB - VISIBILITY IN MILES HX - HEAT INDEX TC - TEMPERATURE IN CELSIUS VRB - VARIABLE WIND DIRECTION N/A - NOT AVAILABLE

USA.gov is the U.S. government's official web portal to all federal, state and local government web resources and services.